Location: Lauter
(50.2445°N, 9.9733°E)
Time: 05:35:38
(UTC+00:00)

Daily predictions for brighter satellites

Satellite Brightness Start Highest point End
(mag) Time Altitude Azimuth Time Altitude Azimuth Time Altitude Azimuth
Cosmos 1726 Rocket 4.3 00:07:11 45° ENE 00:07:11 45° ENE 00:10:36 10° NNE
Cosmos 1331 Rocket 4.5 00:06:53 50° WNW 00:07:18 51° WNW 00:12:26 10° NNE
ATLAS 2AS CENTAUR R/B 3.0 00:09:45 38° WSW 00:12:26 62° NW 00:19:12 10° NE
IDEFIX/ARIANE 42P 3.9 00:11:21 10° NE 00:15:45 27° E 00:16:41 26° ESE
Meteor 1-5 Rocket 4.1 00:15:33 10° NNW 00:20:55 69° W 00:20:58 69° WSW
Cosmos 1953 Rocket 3.8 00:18:11 10° N 00:22:18 66° NE 00:22:18 66° NE
Cosmos 1980 Rocket 2.6 00:19:28 10° NW 00:24:20 46° W 00:24:20 46° W
USA 234 3.9 00:20:18 10° E 00:26:38 55° NNE 00:32:59 10° WNW
Cosmos 44 Rocket 3.9 00:29:47 46° ESE 00:29:47 46° ESE 00:34:32 10° NE
Cosmos 1825 Rocket 4.3 00:29:06 10° NNW 00:32:19 44° NW 00:32:19 44° NW
COSMOS 2406 3.9 00:32:29 39° SE 00:33:20 41° ESE 00:38:41 10° NE
Meteor 2-10 4.2 00:30:27 10° NNW 00:35:51 60° W 00:36:02 60° WSW
Cosmos 2369 3.6 00:30:37 10° NNW 00:36:18 70° WSW 00:36:38 68° SW
Cosmos 1634 Rocket 4.0 00:35:56 51° SSE 00:37:25 70° E 00:43:34 10° NNE
Cosmos 724 4.3 00:44:49 58° S 00:45:49 69° SE 00:51:45 10° NE
Cosmos 2084 3.7 00:46:24 59° NNW 00:46:24 59° NNW 00:50:15 10° NE
Cosmos 1627 Rocket 4.5 00:41:03 10° NNW 00:47:16 67° W 00:48:30 55° SSW
Spot 1 4.0 00:43:16 10° NNE 00:47:07 77° NNE 00:47:07 77° NNE
Cosmos 1607 4.0 00:47:22 51° SSE 00:48:32 60° ESE 00:54:40 10° NE
Cosmos-2242 3.0 00:52:12 77° NE 00:52:12 77° NE 00:56:11 10° NNE
Cosmos 2360 Rocket 3.3 00:46:35 10° NNW 00:52:00 43° NE 00:57:24 10° ESE
Cosmos 2333 Rocket 2.5 00:47:30 10° NNW 00:53:10 66° ENE 00:57:05 21° SE
FENGYUN 3A 4.5 00:49:48 10° NNE 00:54:59 43° E 00:56:43 33° SE
USA 281 3.2 00:51:27 27° SSE 00:55:21 85° ENE 01:01:58 10° NNW
Cosmos 2082 Rocket 2.2 00:59:24 54° WSW 01:00:39 72° WNW 01:06:24 10° NNE
Cosmos 1842 4.3 01:02:44 33° ENE 01:02:44 33° ENE 01:05:06 10° NNE
Meteor 2-2 Rocket 4.1 01:02:52 54° S 01:04:12 86° E 01:09:52 10° NNE
Cosmos 2279 Rocket 4.0 01:03:59 44° S 01:06:06 79° E 01:12:22 10° NNE
Cosmos 2278 3.8 01:01:14 10° NNW 01:06:58 75° ENE 01:11:11 19° SE
Cosmos 2322 Rocket 2.8 01:01:51 10° NNW 01:07:25 57° NE 01:12:59 10° SE
Cosmos 1486 Rocket 3.9 01:02:30 10° NNW 01:07:45 86° ENE 01:09:36 41° SSE
NPP 4.0 01:02:52 10° NNE 01:08:11 56° E 01:09:56 39° SSE
Cosmos 2221 3.5 01:07:40 33° ESE 01:08:30 37° E 01:12:20 10° NNE
Resurs 1-4 Rocket 4.0 01:04:34 10° NE 01:08:47 23° E 01:12:17 13° SE
NOSS 3-3 (A) 3.8 01:14:12 47° S 01:15:27 60° SE 01:21:32 10° NE
ACS3 Solar Sail 1.9 01:10:48 10° N 01:16:43 59° WNW 01:18:33 42° SW
Cosmos 1777 Rocket 3.9 01:13:05 10° NNW 01:18:24 90° NNE 01:20:41 35° SSE
Cosmos 2219 Rocket 3.3 01:15:56 10° NNW 01:21:20 45° NE 01:26:45 10° SE
SL-16 R/B 2.1 01:16:50 10° NNW 01:22:31 72° WSW 01:24:53 36° S
CZ-4C R/B 2.1 01:22:06 45° W 01:23:16 59° NW 01:28:54 10° NE
H-2A R/B 4.1 01:19:30 10° NE 01:23:25 21° E 01:27:23 10° SE
GP-B 3.8 01:19:27 10° NNW 01:23:25 37° WNW 01:23:25 37° WNW
Meteor 1-11 Rocket 4.5 01:17:52 10° N 01:23:41 54° ENE 01:29:12 11° SSE
Cosmos 2180 Rocket 4.5 01:22:10 36° S 01:24:52 77° E 01:31:05 10° NNE
Cosmos 1271 Rocket 3.2 01:27:38 43° ESE 01:27:56 44° E 01:31:15 10° NNE
Meteor 1-14 Rocket 4.2 01:23:53 10° NNW 01:29:40 89° E 01:32:37 30° SSE
ATLAS 3B R/B 4.0 01:24:04 10° WNW 01:29:24 24° WSW 01:29:24 24° WSW
SL-4 R/B 2.6 01:31:34 39° SE 01:31:34 39° SE 01:34:07 10° ESE
USA 267 3.8 01:25:06 10° ENE 01:31:20 44° SE 01:34:01 30° S
NOSS 3-3 (C) 3.8 01:30:27 43° S 01:32:11 66° SE 01:38:24 10° NE
Cosmos 2058 Rocket 3.4 01:32:04 45° W 01:32:29 47° WNW 01:36:45 10° N
Cosmos 2266 Rocket 3.9 01:29:05 10° N 01:35:15 86° ENE 01:39:09 24° S
Cosmos 1470 2.5 01:33:18 10° NNW 01:36:16 65° NW 01:36:16 65° NW
Gbstr 26 Del rocket 2.6 01:37:23 65° SSE 01:37:23 65° SSE 01:40:44 10° ESE
KORONAS-FOTON 4.0 01:38:28 47° NW 01:38:28 47° NW 01:41:20 10° N
USA 290 4.1 01:37:48 22° ESE 01:38:17 22° ESE 01:40:49 10° NE
Cosmos 909 Rocket 4.4 01:37:58 29° WSW 01:41:03 55° NW 01:47:26 10° NE
Cosmos 1536 4.1 01:44:35 10° NNW 01:46:48 24° WNW 01:46:48 24° WNW
Cosmos 2333 4.2 01:42:18 10° NNW 01:48:00 83° ENE 01:53:43 10° SSE
DMSP B5D2-2 4.1 01:45:23 16° SSE 01:49:34 81° ENE 01:54:47 10° NNW
Cosmos 1655 Rocket 4.5 01:44:09 10° N 01:50:20 60° ENE 01:56:27 10° SSE
Cosmos 1812 Rocket 3.5 01:49:34 39° S 01:51:07 80° E 01:55:28 10° NNE
Meteor 2-6 Rocket 4.4 01:49:06 36° SW 01:51:28 65° WNW 01:57:21 10° N
NOSS 3-4 (A) 3.9 01:46:12 10° NW 01:52:46 77° NE 02:00:35 10° SE
NOSS 3-4 (C) 4.0 01:46:44 10° NW 01:53:20 76° NE 02:01:08 10° SE
IDEFIX/ARIANE 42P 2.9 01:50:27 10° N 01:55:26 50° WNW 01:57:22 33° WSW
ISS -1.1 01:56:14 10° SE 01:56:29 10° SE 01:57:07 10° SE
COSMOS 2441 4.3 01:52:45 10° NNE 01:57:34 89° W 01:59:44 33° SSW
Envisat 3.3 01:53:06 10° NNE 01:58:09 62° ESE 02:01:23 22° S
Meteor 2-20 4.5 01:54:40 24° S 01:58:37 83° E 02:04:47 10° NNE
Aureole 1 Rocket 3.5 01:55:20 10° NNW 01:59:23 64° ENE 02:04:27 10° SSE
Cosmos 1707 4.3 02:03:05 14° NW 02:03:05 14° NW 02:04:12 10° NNW
Cosmos 2084 Rocket 3.2 01:58:55 10° NW 02:03:07 76° SW 02:07:21 10° SE
ATLAS 2AS CENTAUR R/B 4.2 01:58:41 10° WNW 02:04:36 29° NNW 02:10:28 10° NE
SWARM C 4.4 02:02:07 10° N 02:05:23 80° E 02:06:24 41° SSE
SWARM A 4.4 02:02:13 10° N 02:05:27 67° E 02:06:47 32° SSE
Iridium 4 Rocket 3.3 02:03:00 26° S 02:05:42 88° E 02:10:50 10° N
MOZ.5/SAFIR/RUBIN 5/SL-8 3.9 02:05:32 31° SSW 02:07:31 54° W 02:12:06 10° NNW
Meteor 1-27 Rocket 4.2 02:03:31 15° S 02:08:21 63° E 02:14:13 10° NNE
H-2A R/B 2.0 02:06:25 22° SSE 02:08:42 85° ENE 02:12:18 10° NNW
USA 234 3.2 02:02:54 10° ESE 02:09:27 86° SSW 02:16:03 10° WNW
Cosmos 1975 3.1 02:06:56 10° NNW 02:10:20 39° W 02:10:36 38° WSW
Cosmos 990 Rocket 3.9 02:05:58 10° NNW 02:11:02 62° WSW 02:15:53 11° S
Cosmos 44 Rocket 4.3 02:08:21 22° W 02:11:07 40° NW 02:16:02 10° NNE
ADEOS II 2.8 02:06:35 10° NNE 02:11:40 49° E 02:16:28 11° S
Cosmos 1763 Rocket 3.5 02:13:17 28° SSW 02:16:07 79° WNW 02:21:28 10° NNE
ALOS 2.4 02:11:43 10° NNE 02:16:16 68° ESE 02:19:31 19° S
Cosmos 1238 Rocket 2.7 02:15:06 28° SSE 02:16:18 50° E 02:19:14 10° NNE
COSMOS 2406 3.9 02:14:30 23° WSW 02:17:37 43° NW 02:23:06 10° NNE
CZ-2D R/B 2.2 02:15:01 10° NNE 02:20:18 76° ESE 02:24:32 16° S
COSMOS 2428 3.9 02:14:52 10° NNW 02:20:21 44° NE 02:25:48 10° SE
SL-16 R/B 3.6 02:15:26 10° SE 02:21:23 48° ENE 02:27:21 10° N
ADEOS Rocket 3.7 02:15:48 10° N 02:23:11 62° WNW 02:28:49 20° SW
Spot 2 4.3 02:23:41 10° S 02:28:28 74° WSW 02:33:28 10° NNW
Cosmos 1898 Rocket 3.8 02:24:00 10° NNW 02:29:10 69° ENE 02:34:19 10° SSE
Cosmos 1354 Rocket 4.4 02:28:31 10° NW 02:33:28 42° WSW 02:38:18 10° S
Cosmos 1937 Rocket 4.2 02:28:33 10° NNW 02:33:42 57° ENE 02:38:46 10° SE
Cosmos 2360 Rocket 2.6 02:30:43 10° NW 02:35:58 39° WSW 02:41:11 10° S
Cosmos 2333 Rocket 3.2 02:32:32 10° NW 02:36:59 24° WSW 02:39:00 20° SW
SL-19 R/B 4.5 02:31:52 10° NNE 02:37:33 80° ESE 02:43:25 11° SSW
Alouette 2 Rocket 3.2 02:33:42 10° NNW 02:37:51 67° W 02:41:22 10° S
USA 305 3.1 02:38:24 15° NW 02:39:04 18° NNW 02:40:09 10° NE
EP 1 4.1 02:37:28 10° NW 02:40:02 65° SW 02:42:48 10° SSE
USA 281 4.3 02:38:17 19° SW 02:40:33 23° W 02:45:34 10° NW
Meteor 2-10 Rocket 3.7 02:38:18 10° N 02:43:25 73° ENE 02:48:40 10° SSE
Cosmos 540 Rocket 3.8 02:41:18 20° SW 02:44:42 53° WNW 02:49:46 10° NNE
H-2A R/B 3.7 02:41:32 10° NE 02:45:07 30° E 02:48:38 10° SSE
Cosmos 2221 3.8 02:43:58 19° WSW 02:45:38 24° WNW 02:49:02 10° NNW
Cosmos 2082 Rocket 4.1 02:41:39 10° W 02:45:46 20° NW 02:49:53 10° N
Cosmos 1553 Rocket 4.3 02:41:43 10° S 02:47:50 68° E 02:54:07 10° NNE
Resurs 1-4 Rocket 2.2 02:43:42 10° N 02:48:56 60° WNW 02:53:19 15° SW
USA 276 3.1 02:50:08 13° SE 02:50:08 13° SE 02:50:27 10° SE
Cosmos 468 Rocket 4.0 02:46:38 16° SSW 02:50:56 78° WNW 02:56:16 10° NNE
Cosmos 2322 Rocket 3.0 02:46:23 10° NW 02:51:07 28° WSW 02:55:52 10° SSW
BREEZE-M DEB (TANK) 3.2 02:50:12 14° W 02:52:40 68° S 03:01:10 10° ESE
DNEPR-1 R/B 4.5 02:49:18 10° NW 02:54:29 50° WSW 03:00:46 10° SSE
CZ-2C R/B 4.4 02:52:12 10° NE 02:56:20 27° E 03:00:20 10° SSE
Cosmos 1766 Rocket 3.8 02:52:47 10° NNW 02:56:56 45° W 03:01:03 10° SSW
ACS3 Solar Sail 3.7 02:55:09 10° NNW 02:57:57 14° NW 03:00:46 10° WNW
Cosmos 1833 4.3 02:53:59 15° SW 02:58:39 66° WNW 03:04:19 10° NNE
Cosmos 1271 Rocket 4.4 03:01:02 13° W 03:02:25 15° WNW 03:04:34 10° NNW
H-2A R/B 2.1 02:58:03 10° N 03:03:07 64° WNW 03:08:18 10° SSW
CRYOSAT 2 4.4 02:59:24 10° S 03:04:13 61° W 03:09:05 10° N
Cosmos 2219 Rocket 2.7 03:00:04 10° NW 03:05:12 37° WSW 03:10:20 10° S
Cosmos 2237 Rocket 3.6 02:59:56 10° NNW 03:05:22 43° NE 03:10:46 10° ESE
SL-16 R/B 3.9 03:03:14 10° WNW 03:05:34 13° W 03:06:38 12° WSW
RESURS DK-1 4.2 03:02:51 10° NNW 03:06:31 34° NE 03:10:10 10° ESE
SL-4 R/B 3.2 03:05:08 13° W 03:07:13 19° SW 03:09:59 10° S
SL-14 R/B 3.7 03:05:25 10° S 03:09:15 62° E 03:13:07 10° NNE
USA 290 3.6 03:10:18 14° WSW 03:12:20 25° WNW 03:15:03 10° N
CZ-4C R/B 3.9 03:08:29 10° WNW 03:12:43 25° NNW 03:17:55 10° NE
ARGOS 3.3 03:08:43 10° NNE 03:14:08 80° ESE 03:19:31 10° SSW
USA 267 3.4 03:08:06 10° ENE 03:14:40 78° NNW 03:21:14 10° WSW
Cosmos 1408 Rocket 3.8 03:10:51 10° N 03:15:10 70° ENE 03:19:25 10° SSE
Cosmos 1745 Rocket 4.3 03:09:40 10° N 03:15:51 74° ENE 03:21:59 10° SSE
METEOR-M 4.2 03:11:25 10° NNE 03:16:44 70° WNW 03:22:01 10° SSW
Gbstr 26 Del rocket 4.1 03:20:05 10° W 03:22:42 18° SW 03:25:21 10° S
Cosmos 2322 3.7 03:20:03 10° NW 03:25:43 65° WSW 03:31:20 10° SSE
NOSS 3 (A) 4.1 03:29:11 10° NW 03:31:29 65° SW 03:34:26 10° SE
ISS -3.1 03:29:23 10° SW 03:32:38 46° SSE 03:35:54 10° E
UNK 4.4 03:30:11 10° SSE 03:34:43 62° ENE 03:39:15 10° N
Envisat 4.4 03:32:44 10° N 03:36:41 23° WNW 03:40:37 10° WSW
BREEZE-M DEB (TANK) 2.6 03:32:16 10° WSW 03:38:00 49° SSE 03:40:38 10° E
Meteor 2-4 Rocket 4.3 03:35:22 10° SW 03:40:17 36° WNW 03:45:13 10° N
